GW1987 Weather Reports


Display with metric or nautical units.
time (UTC)temp
F
wind
direction
speed
MPH
gust
MPH
rain 1hr
in
rain 24hr
in
rain mn
in
humidity
%
barometer
mb
20260905134023 52 360 2.0 5.0 0.02 0.09 0.04 71 930.2
20260905133522 51 360 4.0 6.0 0.03 0.09 0.04 71 929.8
20260905133104 51 360 3.0 8.0 0.03 0.09 0.04 71 929.8
20260905132523 51 360 5.0 8.0 0.03 0.09 0.04 70 929.8
20260905132024 52 360 6.0 8.0 0.03 0.09 0.04 70 929.6
20260905131556 52 360 2.0 4.0 0.03 0.09 0.04 70 929.8
20260905131018 52 360 1.0 3.0 0.03 0.09 0.04 70 930.0
20260905130518 52 360 1.0 4.0 0.02 0.08 0.04 70 930.3
20260905130101 52 360 2.0 5.0 0.02 0.08 0.04 70 930.3
20260905125524 52 360 3.0 5.0 0.02 0.08 0.04 69 930.5
20260905125029 51 360 0.0 3.0 0.01 0.07 0.03 69 930.3
20260905124601 51 360 0.0 2.0 0.01 0.07 0.03 69 930.3
20260905124020 51 360 0.0 3.0 0.00 0.06 0.02 69 930.1
20260905123523 51 360 0.0 4.0 0.00 0.06 0.02 69 930.0
20260905123108 51 360 3.0 5.0 0.00 0.06 0.02 69 929.8
20260905122524 52 360 3.0 5.0 0.00 0.06 0.02 69 929.8
20260905122021 52 360 3.0 5.0 0.00 0.06 0.02 69 929.6
20260905121601 52 360 3.0 5.0 0.00 0.06 0.02 69 929.5
20260905121021 52 360 1.0 3.0 0.00 0.06 0.02 69 929.5
20260905120524 52 360 0.0 2.0 0.00 0.06 0.02 69 929.5
20260905115522 52 360 0.0 0.0 0.01 0.06 0.02 69 929.5
20260905115023 52 360 0.0 2.0 0.01 0.06 0.02 69 929.9
20260905114600 52 360 0.0 3.0 0.01 0.06 0.02 69 929.8
20260905114021 52 360 2.0 5.0 0.01 0.06 0.02 69 929.6
20260905113524 52 360 2.0 5.0 0.02 0.06 0.02 69 929.8
20260905113100 52 360 3.0 8.0 0.02 0.06 0.02 69 929.6
20260905112521 52 360 4.0 9.0 0.02 0.06 0.02 68 929.9
20260905112024 52 360 4.0 11.0 0.02 0.06 0.02 68 929.8
20260905111558 52 360 7.0 11.0 0.02 0.06 0.02 68 929.6
20260905111024 52 360 8.0 11.0 0.02 0.06 0.02 68 929.6
20260905110523 52 360 4.0 6.0 0.02 0.06 0.02 69 929.5
20260905110059 51 360 2.0 6.0 0.01 0.04 0.01 69 929.4
20260905105523 51 360 4.0 6.0 0.01 0.04 0.01 69 929.2
20260905105019 51 360 3.0 5.0 0.01 0.04 0.01 69 929.2
20260905104553 52 360 2.0 4.0 0.01 0.04 0.01 69 929.2
20260905104022 52 360 2.0 4.0 0.00 0.04 0.00 69 929.4
20260905103528 52 360 2.0 4.0 0.00 0.04 0.00 69 929.4
20260905103052 52 360 2.0 5.0 0.00 0.04 0.00 69 929.4
20260905102524 52 360 2.0 5.0 0.00 0.04 0.00 69 929.3
20260905102017 52 360 3.0 5.0 0.00 0.04 0.00 68 929.4
20260905101605 52 360 3.0 5.0 0.00 0.04 0.00 68 929.2
20260905101023 52 360 3.0 9.0 0.00 0.04 0.00 68 929.3
20260905100524 52 360 4.0 9.0 0.00 0.04 0.00 68 929.1
20260905100125 52 360 5.0 9.0 0.00 0.04 0.00 68 929.3
20260905095526 52 360 4.0 10.0 0.00 0.04 0.00 68 929.4
20260905095020 52 360 7.0 10.0 0.00 0.04 0.00 67 929.4
20260905094818 52 360 4.0 9.0 0.00 0.04 0.00 67 929.2
20260905094018 52 360 5.0 9.0 0.00 0.04 0.00 67 929.2
20260905093518 52 360 4.0 8.0 0.00 0.04 0.00 67 929.1
20260905093034 52 360 5.0 8.0 0.00 0.04 0.00 67 928.8
20260905092521 52 360 4.0 5.0 0.00 0.04 0.00 67 928.5
20260905092022 52 360 2.0 3.0 0.00 0.04 0.00 67 928.7
20260905091554 52 360 1.0 4.0 0.00 0.04 0.00 67 928.5
20260905091018 52 360 3.0 4.0 0.00 0.04 0.00 67 928.8
20260905090519 52 360 2.0 4.0 0.00 0.04 0.00 67 928.4
20260905090036 52 360 3.0 5.0 0.00 0.04 0.00 67 928.6
20260905085522 51 360 3.0 5.0 0.00 0.04 0.00 67 928.3
20260905085018 52 360 3.0 4.0 0.00 0.04 0.00 67 928.3
20260905084548 52 360 2.0 6.0 0.00 0.04 0.00 67 928.1
20260905084016 52 360 4.0 6.0 0.00 0.04 0.00 67 928.3
20260905083519 52 360 4.0 6.0 0.00 0.04 0.00 67 928.3
20260905083047 52 360 3.0 8.0 0.00 0.04 0.00 67 928.2
20260905082516 52 360 5.0 8.0 0.00 0.04 0.00 67 928.5
20260905082017 52 360 4.0 9.0 0.00 0.04 0.00 66 928.3
20260905081541 52 360 6.0 11.0 0.00 0.04 0.00 66 928.2
20260905081019 52 360 8.0 11.0 0.00 0.04 0.00 66 928.3
20260905080520 52 360 6.0 10.0 0.00 0.04 0.00 65 928.7
20260905080033 52 360 5.0 8.0 0.00 0.04 0.00 63 928.4
20260905075518 52 360 5.0 8.0 0.00 0.04 0.00 63 928.2
20260905075017 52 360 3.0 5.0 0.00 0.04 0.00 63 928.3
20260905074534 52 360 3.0 5.0 0.00 0.04 0.00 63 928.4
20260905074021 52 360 3.0 4.0 0.00 0.04 0.00 64 928.3
20260905073517 52 360 3.0 4.0 0.00 0.04 0.00 64 928.3
20260905073040 53 360 1.0 4.0 0.00 0.04 0.00 65 928.4
20260905072517 53 360 3.0 4.0 0.00 0.04 0.00 64 928.3
20260905072018 53 360 1.0 2.0 0.00 0.04 0.00 65 928.3
20260905071535 53 360 0.0 1.0 0.00 0.04 0.00 65 928.3
20260905071017 53 360 0.0 2.0 0.00 0.04 0.00 64 928.1
20260905070516 53 360 0.0 3.0 0.00 0.04 0.00 64 928.1
20260905070036 53 360 1.0 3.0 0.00 0.04 0.00 65 928.0
20260905065516 53 360 1.0 3.0 0.00 0.04 0.00 65 928.0
20260905065018 53 360 2.0 4.0 0.00 0.04 0.00 64 928.0
20260905064533 53 360 0.0 6.0 0.00 0.04 0.00 64 927.9
20260905064020 53 360 3.0 6.0 0.00 0.04 0.00 63 928.1
20260905063521 53 360 3.0 8.0 0.01 0.04 0.00 63 928.2
20260905063036 52 360 4.0 8.0 0.01 0.04 0.00 62 928.2
20260905062516 52 360 5.0 8.0 0.01 0.04 0.00 63 928.0
20260905062020 52 360 5.0 8.0 0.01 0.04 0.00 63 928.1
20260905061546 52 360 4.0 9.0 0.01 0.04 0.00 63 928.4
20260905061016 53 360 7.0 12.0 0.01 0.04 0.00 63 928.3
20260905060517 52 360 9.0 12.0 0.01 0.04 0.00 64 928.2
20260905060050 52 360 9.0 12.0 0.01 0.04 0.00 64 928.5
20260905055517 52 360 4.0 6.0 0.01 0.04 0.04 64 928.4
20260905055017 52 360 4.0 8.0 0.01 0.04 0.04 64 928.3
20260905054622 52 360 4.0 8.0 0.01 0.04 0.04 64 928.4
20260905054021 52 360 3.0 6.0 0.01 0.04 0.04 65 928.4
20260905053520 52 360 4.0 6.0 0.00 0.03 0.03 65 928.5
20260905053046 51 360 4.0 9.0 0.00 0.03 0.03 66 928.4
20260905052517 51 360 5.0 9.0 0.01 0.03 0.03 66 928.3
20260905052021 51 360 5.0 9.0 0.01 0.03 0.03 66 928.2
20260905051553 51 360 6.0 9.0 0.02 0.03 0.03 66 928.1
20260905051018 51 360 6.0 12.0 0.03 0.03 0.03 66 927.8
20260905050519 51 360 8.0 12.0 0.03 0.03 0.03 66 928.0
20260905050049 52 360 8.0 12.0 0.03 0.03 0.03 65 928.2
20260905045521 52 360 9.0 12.0 0.03 0.03 0.03 65 928.4
20260905045015 52 360 9.0 11.0 0.03 0.03 0.03 64 928.5
20260905044553 52 360 7.0 11.0 0.03 0.03 0.03 65 928.5
20260905044017 53 360 9.0 11.0 0.03 0.03 0.03 65 928.9
20260905043520 53 360 7.0 10.0 0.03 0.03 0.03 63 928.9
20260905043102 54 360 8.0 10.0 0.03 0.03 0.03 63 928.8
20260905042519 54 360 6.0 10.0 0.02 0.02 0.02 62 928.7
20260905042016 55 360 6.0 10.0 0.02 0.02 0.02 59 929.1
20260905041552 55 360 8.0 10.0 0.01 0.01 0.01 57 929.0
20260905041015 56 360 6.0 10.0 0.00 0.00 0.00 54 928.5
20260905040521 58 360 7.0 9.0 0.00 0.00 0.00 49 928.5
20260905040057 58 360 4.0 6.0 0.00 0.00 0.00 45 928.1
20260905035519 59 360 3.0 5.0 0.00 0.00 0.00 43 927.8
20260905035021 59 360 3.0 9.0 0.00 0.00 0.00 40 927.7
20260905034602 59 360 5.0 10.0 0.00 0.00 0.00 41 927.7
20260905034017 59 360 6.0 10.0 0.00 0.00 0.00 42 927.6
20260905033517 59 360 5.0 12.0 0.00 0.00 0.00 42 927.7
20260905033110 59 360 7.0 12.0 0.00 0.00 0.00 40 927.7
20260905032521 59 360 6.0 11.0 0.00 0.00 0.00 40 927.7
20260905032020 60 360 9.0 14.0 0.00 0.00 0.00 39 927.8
20260905031600 60 360 10.0 16.0 0.00 0.00 0.00 39 927.8
20260905031017 60 360 12.0 18.0 0.00 0.00 0.00 38 927.6
20260905030517 60 360 13.0 18.0 0.00 0.00 0.00 37 926.9
20260905030055 60 360 10.0 17.0 0.00 0.00 0.00 38 927.1
20260905025517 60 360 11.0 19.0 0.00 0.00 0.00 37 927.0
20260905025018 61 360 14.0 19.0 0.00 0.00 0.00 36 926.6
20260905024558 62 360 10.0 17.0 0.00 0.00 0.00 34 926.7
20260905024015 63 360 12.0 15.0 0.00 0.00 0.00 32 926.7
20260905023518 63 360 11.0 13.0 0.00 0.00 0.00 30 927.1
20260905023051 63 360 9.0 13.0 0.00 0.00 0.00 30 927.1
20260905022518 63 360 9.0 14.0 0.00 0.00 0.00 29 926.9
20260905022017 63 360 11.0 14.0 0.00 0.00 0.00 29 926.7
20260905021549 63 360 11.0 16.0 0.00 0.00 0.00 29 926.4
20260905021017 64 360 12.0 17.0 0.00 0.00 0.00 28 926.2
20260905020523 64 360 13.0 17.0 0.00 0.00 0.00 28 926.0
20260905020056 64 360 11.0 17.0 0.00 0.00 0.00 27 926.1
20260905015520 65 360 12.0 17.0 0.00 0.00 0.00 27 926.1
20260905015018 65 360 11.0 19.0 0.00 0.00 0.00 27 925.9
20260905014552 65 360 14.0 19.0 0.00 0.00 0.00 26 926.0
20260905014018 65 360 14.0 20.0 0.00 0.00 0.00 27 925.9
20260905013517 65 360 14.0 20.0 0.00 0.00 0.00 27 925.8
20260905013102 66 360 14.0 20.0 0.00 0.00 0.00 27 925.3
20260905012517 66 360 15.0 20.0 0.00 0.00 0.00 26 925.1
20260905012016 66 360 12.0 16.0 0.00 0.00 0.00 25 925.2
20260905011553 66 360 12.0 18.0 0.00 0.00 0.00 25 925.0
20260905011022 66 360 14.0 19.0 0.00 0.00 0.00 25 925.0
20260905010518 66 360 15.0 21.0 0.00 0.00 0.00 25 925.1
20260905010100 66 360 14.0 21.0 0.00 0.00 0.00 25 925.0
20260905005518 67 360 16.0 20.0 0.00 0.00 0.00 25 924.8
20260905005021 67 360 15.0 18.0 0.00 0.00 0.00 25 925.0
20260905004550 67 360 12.0 16.0 0.00 0.00 0.00 26 925.1
20260905004017 67 360 10.0 18.0 0.00 0.00 0.00 26 925.4
20260905003519 67 360 11.0 19.0 0.00 0.00 0.00 26 925.3
20260905003058 67 360 13.0 23.0 0.00 0.00 0.00 25 925.5
20260905002516 68 360 18.0 23.0 0.00 0.00 0.00 25 924.8
20260905002017 68 360 17.0 21.0 0.00 0.00 0.00 25 925.0
20260905001554 68 360 17.0 22.0 0.00 0.00 0.00 25 925.0
20260905001020 68 360 17.0 22.0 0.00 0.00 0.00 25 925.1
20260905000521 68 360 16.0 25.0 0.00 0.00 0.00 26 925.1
20260905000100 69 360 17.0 23.0 0.00 0.00 0.00 26 925.0
20260904235518 69 360 19.0 24.0 0.00 0.00 0.00 26 924.9
20260904235020 69 360 19.0 28.0 0.00 0.00 0.00 26 924.7
20260904234550 69 360 18.0 24.0 0.00 0.00 0.00 27 924.6
20260904234019 69 360 17.0 25.0 0.00 0.00 0.00 27 924.9
20260904233519 70 360 18.0 26.0 0.00 0.00 0.00 26 924.9
20260904233047 70 360 19.0 26.0 0.00 0.00 0.00 26 924.7
20260904232518 70 360 17.0 26.0 0.00 0.00 0.00 27 924.7
20260904232018 70 360 19.0 24.0 0.00 0.00 0.00 26 924.6
20260904231606 70 360 16.0 23.0 0.00 0.00 0.00 26 924.7
20260904231018 71 360 17.0 26.0 0.00 0.00 0.00 26 924.8
20260904230518 71 360 20.0 26.0 0.00 0.00 0.00 26 924.5
20260904230104 71 360 17.0 26.0 0.00 0.00 0.00 26 924.8
20260904225516 71 360 19.0 26.0 0.00 0.00 0.00 25 924.7
20260904225021 72 360 16.0 23.0 0.00 0.00 0.00 25 924.6
20260904224549 71 360 16.0 23.0 0.00 0.00 0.00 25 924.7
20260904224019 72 360 17.0 23.0 0.00 0.00 0.00 25 924.6
20260904223519 71 360 15.0 23.0 0.00 0.00 0.00 25 924.7
20260904223057 72 360 18.0 25.0 0.00 0.00 0.00 25 924.4
20260904222521 71 360 18.0 25.0 0.00 0.00 0.00 26 924.3
20260904222016 71 360 13.0 23.0 0.00 0.00 0.00 27 924.5
20260904221555 71 360 16.0 25.0 0.00 0.00 0.00 28 924.5
20260904221018 71 360 17.0 25.0 0.00 0.00 0.00 28 924.4
20260904220521 71 360 13.0 22.0 0.00 0.00 0.00 27 924.4
20260904220104 71 360 17.0 31.0 0.00 0.00 0.00 28 924.4
20260904215520 71 360 20.0 31.0 0.00 0.00 0.00 28 924.1
20260904215024 70 360 11.0 23.0 0.00 0.00 0.00 29 924.0
20260904214600 71 360 17.0 21.0 0.00 0.00 0.00 29 924.0
20260904214017 71 360 17.0 24.0 0.00 0.00 0.00 29 924.1
20260904213518 71 360 17.0 24.0 0.00 0.00 0.00 29 923.9
20260904213051 71 360 15.0 26.0 0.00 0.00 0.00 29 924.0
20260904212516 71 360 18.0 26.0 0.00 0.00 0.00 28 923.9
20260904212020 71 360 10.0 20.0 0.00 0.00 0.00 28 923.9
20260904211603 71 360 16.0 26.0 0.00 0.00 0.00 29 923.8
20260904211019 71 360 21.0 26.0 0.00 0.00 0.00 28 923.8
20260904210520 70 360 16.0 25.0 0.00 0.00 0.00 29 923.9
20260904210100 70 360 15.0 25.0 0.00 0.00 0.00 28 923.6
20260904205519 70 360 18.0 26.0 0.00 0.00 0.00 29 923.8
20260904205018 70 360 17.0 26.0 0.00 0.00 0.00 28 923.7
20260904204552 71 360 15.0 26.0 0.00 0.00 0.00 28 923.8
20260904204018 70 360 16.0 25.0 0.00 0.00 0.00 28 923.7
20260904203521 70 360 17.0 25.0 0.00 0.00 0.00 27 923.6
20260904203057 70 360 18.0 26.0 0.00 0.00 0.00 27 923.5
20260904202519 70 360 17.0 26.0 0.00 0.00 0.00 28 923.4
20260904202022 70 360 17.0 28.0 0.00 0.00 0.00 27 923.3
20260904201550 70 360 17.0 28.0 0.00 0.00 0.00 29 923.4
20260904201019 70 360 18.0 28.0 0.00 0.00 0.00 28 923.0
20260904200517 70 360 16.0 28.0 0.00 0.00 0.00 29 923.3
20260904200112 70 360 15.0 27.0 0.00 0.00 0.00 29 923.1
20260904195518 70 360 20.0 27.0 0.00 0.00 0.00 30 923.1
20260904195016 70 360 19.0 28.0 0.00 0.00 0.00 29 923.0
20260904194551 69 360 24.0 30.0 0.00 0.00 0.00 30 922.8
20260904194018 70 360 23.0 30.0 0.00 0.00 0.00 29 922.4
20260904193517 69 360 17.0 31.0 0.00 0.00 0.00 30 923.1
20260904193050 70 360 22.0 31.0 0.00 0.00 0.00 30 922.8
20260904192520 69 360 21.0 30.0 0.00 0.00 0.00 30 922.9
20260904192017 69 360 23.0 30.0 0.00 0.00 0.00 30 922.8
20260904191600 70 360 21.0 30.0 0.00 0.00 0.00 29 922.8
20260904191019 70 360 15.0 28.0 0.00 0.00 0.00 30 923.0
20260904190517 69 360 19.0 28.0 0.00 0.00 0.00 29 922.8
20260904190105 68 360 17.0 25.0 0.00 0.00 0.00 29 923.0
20260904185516 68 360 17.0 22.0 0.00 0.00 0.00 29 923.0
20260904185021 68 360 16.0 23.0 0.00 0.00 0.00 29 922.9
20260904184552 68 360 17.0 23.0 0.00 0.00 0.00 29 922.8
20260904184021 67 360 16.0 23.0 0.00 0.00 0.00 28 922.9
20260904183521 67 360 15.0 19.0 0.00 0.00 0.00 28 923.0
20260904183050 67 360 14.0 20.0 0.00 0.00 0.00 29 922.8
20260904182525 66 360 16.0 21.0 0.00 0.00 0.00 29 922.5
20260904182021 66 360 14.0 20.0 0.00 0.00 0.00 30 922.5
20260904181558 66 360 13.0 20.0 0.00 0.00 0.00 29 922.7
20260904181017 65 360 14.0 21.0 0.00 0.00 0.00 30 922.4
20260904180522 65 360 13.0 21.0 0.00 0.00 0.00 30 922.3
20260904180107 64 360 13.0 20.0 0.00 0.00 0.00 31 922.2
20260904175523 64 360 14.0 20.0 0.00 0.00 0.00 31 922.2
20260904175020 64 360 13.0 17.0 0.00 0.00 0.00 32 922.2
20260904174600 64 360 13.0 20.0 0.00 0.00 0.00 31 922.1
20260904174021 64 360 13.0 20.0 0.00 0.00 0.00 31 921.8
20260904173522 63 360 14.0 20.0 0.00 0.00 0.00 32 921.9
20260904173106 63 360 15.0 20.0 0.00 0.00 0.00 32 921.8
20260904172517 63 360 13.0 19.0 0.00 0.00 0.00 33 921.7
20260904172020 62 360 14.0 19.0 0.00 0.00 0.00 34 921.8
20260904171549 63 360 15.0 20.0 0.00 0.00 0.00 33 921.9
20260904171020 61 360 14.0 20.0 0.00 0.00 0.00 35 921.8
20260904170517 61 360 15.0 20.0 0.00 0.00 0.00 35 921.7
20260904170051 61 360 13.0 18.0 0.00 0.00 0.00 36 921.9
20260904165521 60 360 14.0 20.0 0.00 0.00 0.00 37 921.7
20260904165020 60 360 14.0 20.0 0.00 0.00 0.00 37 921.8
20260904164603 60 360 17.0 20.0 0.00 0.00 0.00 36 921.8
20260904164020 60 360 16.0 21.0 0.00 0.00 0.00 38 921.6
20260904163517 59 360 16.0 21.0 0.00 0.00 0.00 38 921.4
20260904163058 59 360 17.0 21.0 0.00 0.00 0.00 38 921.5
20260904162518 59 360 15.0 21.0 0.00 0.00 0.00 39 921.7
20260904162018 58 360 16.0 21.0 0.00 0.00 0.00 40 921.5
20260904161600 58 360 17.0 21.0 0.00 0.00 0.00 40 921.3
20260904161021 58 360 17.0 20.0 0.00 0.00 0.00 40 921.3
20260904160522 58 360 16.0 21.0 0.00 0.00 0.00 41 921.3
20260904160100 57 360 17.0 22.0 0.00 0.00 0.00 42 921.1
20260904155520 57 360 17.0 22.0 0.00 0.00 0.00 42 921.1
20260904155020 57 360 17.0 22.0 0.00 0.00 0.00 42 920.9
20260904154611 57 360 17.0 22.0 0.00 0.00 0.00 43 920.7
20260904154019 57 360 17.0 21.0 0.00 0.00 0.00 45 920.8
20260904153520 56 360 17.0 21.0 0.00 0.00 0.00 46 920.7
20260904153059 55 360 13.0 19.0 0.00 0.00 0.00 47 920.9
20260904152516 55 360 14.0 19.0 0.00 0.00 0.00 48 921.0
20260904152022 55 360 13.0 17.0 0.00 0.00 0.00 49 920.9
20260904151602 54 360 13.0 18.0 0.00 0.00 0.00 49 920.7
20260904151018 54 360 13.0 19.0 0.00 0.00 0.00 50 920.6
20260904150521 53 360 13.0 18.0 0.00 0.00 0.00 51 920.5
20260904150059 53 360 12.0 16.0 0.00 0.00 0.00 52 920.4
20260904145520 52 360 11.0 16.0 0.00 0.00 0.00 53 920.6
20260904145020 52 360 10.0 15.0 0.00 0.00 0.00 53 920.6
20260904144558 51 360 12.0 15.0 0.00 0.00 0.00 54 920.4
20260904144017 51 360 11.0 14.0 0.00 0.00 0.00 55 920.2
20260904143517 51 360 10.0 13.0 0.00 0.00 0.00 56 920.2
20260904143107 50 360 9.0 13.0 0.00 0.00 0.00 57 920.2
20260904142517 49 360 8.0 11.0 0.00 0.00 0.00 58 920.1
20260904142020 49 360 7.0 10.0 0.00 0.00 0.00 59 920.1
20260904141603 48 360 6.0 10.0 0.00 0.00 0.00 59 920.0
20260904141021 48 360 7.0 10.0 0.00 0.00 0.00 60 919.8
20260904140522 47 360 7.0 10.0 0.00 0.00 0.00 61 919.8
20260904140109 47 360 6.0 10.0 0.00 0.00 0.00 61 919.7
20260904135520 46 360 6.0 10.0 0.00 0.00 0.00 61 920.0
20260904135021 46 360 7.0 11.0 0.00 0.00 0.00 62 920.0
20260904134614 46 360 7.0 11.0 0.00 0.00 0.00 62 919.7